Regional Weather Roundup
Issued by NWS

Home | Current Version | Previous Version | Graphics & Text | Print | Product List | Glossary On
Versions: 1 2 3 4 5 6 7 8 9 10 11 12 13 14 15 16 17 18 19 20 21 22 23 24 25 26 27 28 29 30 31 32 33 34 35 36 37 38 39 40 41 42 43 44 45 46 47 48 49 50
000
ASUS43 KMKX 270700
RWRWI

WISCONSIN REGIONAL WEATHER ROUNDUP
NATIONAL WEATHER SERVICE MILWAUKEE/SULLIVAN WI
200 AM CDT TUE SEP 27 2016

NOTE: "FAIR" INDICATES FEW OR NO CLOUDS BELOW 12,000 FEET WITH NO
SIGNIFICANT WEATHER AND/OR OBSTRUCTIONS TO VISIBILITY.

WIZ001-002-006>008-014>016-023>028-270800-
NORTHWEST WISCONSIN

CITY           SKY/WX    TMP DP  RH WIND       PRES   REMARKS
SUPERIOR ARPT  CLOUDY    54  44  70 W13       29.71S
ASHLAND        LGT RAIN  50  47  89 W17G25    29.66S
HAYWARD        CLOUDY    53  41  63 W9        29.71F
SIREN          CLOUDY    52  40  62 W12G17    29.77S
CUMBERLAND     CLOUDY    50  37  62 W14       29.76F
RICE LAKE      CLOUDY    53  39  58 W12G17    29.77S
CHETEK         NOT AVBL
LADYSMITH      CLOUDY    54  44  67 W9G17     29.73F
EAU CLAIRE     NOT AVBL
MENOMONIE      CLEAR     54  41  61 W13G23    29.79F
NEW RICHMOND   CLEAR     49  40  69 W12       29.81F
OSCEOLA        CLEAR     52  41  66 W12G17    29.84S
$$

WIZ003>005-009-010-017-018-270800-
NORTH CENTRAL WISCONSIN

CITY           SKY/WX    TMP DP  RH WIND       PRES   REMARKS
MANITOWISH WTR NOT AVBL
ARBOR VITAE    CLOUDY    52  49  89 W9G16     29.64F
WOODRUFF       CLOUDY    52  49  89 W9G16     29.64F
RHINELANDER    CLOUDY    50  45  83 W15G24    29.66F
EAGLE RIVER    CLOUDY    48  46  93 W15G21    29.62S
LAND O LAKES   CLOUDY    48  46  95 W13G21    29.62S
PHILLIPS       CLOUDY    51  43  74 W7        29.68F
TOMAHAWK       CLOUDY    51  42  71 W10G17    29.68F
MEDFORD        CLOUDY    50  41  71 W10G16    29.71F
MERRILL        CLOUDY    53  43  68 W14       29.69F
$$

WIZ029-030-035-036-043>047-270800-
CENTRAL WISCONSIN

CITY           SKY/WX    TMP DP  RH WIND       PRES   REMARKS
WAUSAU         CLOUDY    52  41  66 W12       29.69F
MOSINEE        CLOUDY    50  41  71 W15       29.72F
MARSHFIELD     MOCLDY    50  39  66 W10       29.74S
STEVENS POINT  CLOUDY    51  38  62 W10       29.74S
WAUPACA        CLOUDY    55  40  55 SW8       29.74F
WAUTOMA        CLEAR     48  39  71 W5        29.77F
WISC RAPIDS    PTCLDY    50  40  68 W9        29.77S
CAMP DOUGLAS   NOT AVBL
$$

WIZ011>013-019>022-031-037>040-048>050-270800-
NORTHEAST WISCONSIN

CITY           SKY/WX    TMP DP  RH WIND       PRES   REMARKS
ANTIGO         CLOUDY    50  42  74 W10       29.68F
SHAWANO        CLOUDY    56  41  58 SW8       29.69F
OCONTO         NOT AVBL
STURGEON BAY   CLOUDY    56  43  61 W15       29.68S
GREEN BAY      CLOUDY    53  43  68 SW9       29.71F
MANITOWOC      NOT AVBL
APPLETON       CLOUDY    52  36  54 SW12      29.72S
CLINTONVILLE   NOT AVBL
OSHKOSH        CLOUDY    54  38  54 VRB7      29.75S
$$

WIZ032>034-041-042-053>061-270800-
SOUTHWEST WISCONSIN

CITY           SKY/WX    TMP DP  RH WIND       PRES   REMARKS
LA CROSSE      CLEAR     57  38  48 W12       29.83F
SPARTA         CLEAR     49  40  71 SW6       29.82S
VIROQUA        CLEAR     51  36  56 W7        29.85S
BOSCOBEL       CLEAR     55  37  50 SW7       29.87S
PRAIRIE DU CHI CLEAR     55  34  45 W9        29.88S
PLATTEVILLE    CLEAR     51  40  66 W8        29.89S
$$

WIZ056-057-062-063-064-067-068-270800-
SOUTH CENTRAL WISCONSIN

CITY           SKY/WX    TMP DP  RH WIND       PRES   REMARKS
REEDSBURG      NOT AVBL
BARABOO/DELLS  CLEAR     51  36  55 W7        29.81F
LONE ROCK      NOT AVBL
MINERAL POINT  CLEAR     52  36  54 W10       29.87S
MADISON        CLEAR     54  36  50 VRB5      29.83R
MIDDLETON      NOT AVBL
WATERTOWN      CLEAR     50  40  67 SW6       29.82S
MONROE         CLEAR     54  36  50 SW15      29.86F
JANESVILLE     CLEAR     52  37  58 SW8       29.85S
$$

WIZ051-052-058>065-066-070>072-270800-
SOUTHEAST WISCONSIN

CITY           SKY/WX    TMP DP  RH WIND       PRES   REMARKS
MILWAUKEE      CLEAR     56  37  49 SW10      29.82S
WAUKESHA       CLEAR     50  36  57 SW10      29.83S
MILWAUKEE/TIMM CLEAR     52  36  54 SW9       29.82S
RACINE         CLEAR     51  38  60 SW7       29.84F
BURLINGTON     CLEAR     51  36  56 SW6       29.84F
KENOSHA        CLEAR     51  38  60 SW12      29.84F
FOND DU LAC    PTCLDY    52  39  61 SW9       29.77F
SHEBOYGAN      CLOUDY    52  40  63 SW12      29.76F
WEST BEND      PTCLDY    52  37  58 W8        29.79F
JUNEAU         CLEAR     47  39  71 SW10      29.82S
$$

LSZ147-162-270800-
LAKE SUPERIOR

STATION/POSITION TIME  TEMP    WIND        PRES    WAVE
                       AIR SEA DIR/SP/G            HT/PER
                 (UTC) (F)     (DEG/KT/KT) (MB)    (FT/S)
W MID LAKE BUOY  0550   51 46  270/ 16/ 17  999.6F   5/ 6
DEVILS ISLAND    0600   53     270/ 25/ 30 1002.2F
SAXON HARBOR     0600   54     250/  6/ 14 1003.7F
$$

LMZ867-665-643>646-270800-
LAKE MICHIGAN

STATION/POSITION TIME  TEMP    WIND        PRES    WAVE
                       AIR SEA DIR/SP/G            HT/PER
                 (UTC) (F)     (DEG/KT/KT) (MB)    (FT/S)
CHAMBERS ISLAND  0600   56     220/  7/ 18 1003.7F
N MID LAKE BUOY  0550   58 66  250/ 25/ 31 1002.2F   7/ 6
NORTHPORT PIER   0600   57     280/  7/ 20 1003.7F
KEWAUNEE LAKESHO 0600   56     240/  8/ 12 1005.7F
SHEBOYGAN LAKESH 0600   55     240/ 12/ 15 1007.7F
PORT WASHINGTON  0640   54     260/  6/ 10 1009.8S
ATWATER BUOY     0600   58 58  230/ 12/ 16 1009.6F
MILWAUKEE LAKESH 0610   58     250/ 11/ 13   N/A
S MID LAKE BUOY  0550   65 70  250/ 21/ 25 1009.1F   4/ 5
KENOSHA   LAKESH 0600   58     240/ 11/ 15 1010.5F
$$

TC  - TEMPERATURE IN CELSIUS
VSB - VISIBILITY IN STATUTE MILES
WCI - WIND CHILL INDEX
HX  - HEAT INDEX





USA.gov is the U.S. government's official web portal to all federal, state and local government web resources and services.